Time,TemperatureF,DewpointF,PressureIn,WindDirection,WindDirectionDegrees,WindSpeedMPH,WindSpeedGustMPH,Humidity,HourlyPrecipIn,Conditions,Clouds,dailyrainin,SoftwareType,DateUTC
2013-03-03 00:00:00,17.1,13.6,30.19,WNW,292,0.0,0.0,88,0.00,,,0.00,WUHU21636XXSP,2013-03-03 06:00:00,
2013-03-03 00:05:00,17.1,13.6,30.19,WNW,292,0.0,0.0,88,0.00,,,0.00,WUHU21636XXSP,2013-03-03 06:05:00,
2013-03-03 00:10:00,17.1,13.6,30.19,WNW,292,0.0,0.0,88,0.00,,,0.00,WUHU21636XXSP,2013-03-03 06:10:00,
2013-03-03 00:15:00,16.3,13.3,30.20,WNW,292,0.0,0.0,88,0.00,,,0.00,WUHU21636XXSP,2013-03-03 06:15:00,
2013-03-03 00:20:00,16.3,13.3,30.20,WNW,292,0.0,0.0,88,0.00,,,0.00,WUHU21636XXSP,2013-03-03 06:20:00,
2013-03-03 00:25:00,16.5,13.5,30.19,WNW,292,0.0,0.0,88,0.00,,,0.00,WUHU21636XXSP,2013-03-03 06:25:00,
2013-03-03 00:30:00,16.7,13.6,30.19,WNW,292,0.0,0.0,88,0.00,,,0.00,WUHU21636XXSP,2013-03-03 06:30:00,
2013-03-03 00:35:00,17.2,14.4,30.19,WNW,292,0.0,0.0,89,0.00,,,0.00,WUHU21636XXSP,2013-03-03 06:35:00,
2013-03-03 00:40:00,17.6,14.7,30.20,WNW,292,0.0,0.0,89,0.00,,,0.00,WUHU21636XXSP,2013-03-03 06:40:00,
2013-03-03 00:45:00,17.6,14.7,30.19,WNW,292,0.0,0.0,89,0.00,,,0.00,WUHU21636XXSP,2013-03-03 06:45:00,
2013-03-03 00:50:00,17.8,14.9,30.19,WNW,292,0.0,0.0,89,0.00,,,0.00,WUHU21636XXSP,2013-03-03 06:50:00,
2013-03-03 00:55:00,18.0,15.1,30.19,WNW,292,0.0,0.0,89,0.00,,,0.00,WUHU21636XXSP,2013-03-03 06:55:00,
2013-03-03 01:00:00,17.8,14.9,30.19,WNW,292,0.0,0.0,89,0.00,,,0.00,WUHU21636XXSP,2013-03-03 07:00:00,
2013-03-03 01:05:00,17.8,14.9,30.19,WNW,292,0.0,0.0,89,0.00,,,0.00,WUHU21636XXSP,2013-03-03 07:05:00,
2013-03-03 01:10:00,17.8,14.9,30.19,WNW,292,0.0,0.0,89,0.00,,,0.00,WUHU21636XXSP,2013-03-03 07:10:00,
2013-03-03 01:15:00,16.5,13.6,30.19,WNW,292,0.0,0.0,88,0.00,,,0.00,WUHU21636XXSP,2013-03-03 07:15:00,
2013-03-03 01:20:00,17.2,14.4,30.20,WNW,292,0.0,0.0,89,0.00,,,0.00,WUHU21636XXSP,2013-03-03 07:20:00,
2013-03-03 01:25:00,18.0,15.1,30.19,WNW,292,0.0,0.0,89,0.00,,,0.00,WUHU21636XXSP,2013-03-03 07:25:00,
2013-03-03 01:30:00,18.1,15.3,30.19,WNW,292,0.0,0.0,89,0.00,,,0.00,WUHU21636XXSP,2013-03-03 07:30:00,
2013-03-03 01:35:00,18.5,15.6,30.19,WNW,292,0.0,0.0,89,0.00,,,0.00,WUHU21636XXSP,2013-03-03 07:35:00,
2013-03-03 01:40:00,18.5,15.6,30.19,WNW,292,0.0,0.0,89,0.00,,,0.00,WUHU21636XXSP,2013-03-03 07:40:00,
2013-03-03 01:45:00,18.5,15.6,30.19,WNW,292,0.0,0.0,88,0.00,,,0.00,WUHU21636XXSP,2013-03-03 07:45:00,
2013-03-03 01:50:00,18.5,15.4,30.19,WNW,292,0.0,0.0,88,0.00,,,0.00,WUHU21636XXSP,2013-03-03 07:50:00,
2013-03-03 01:55:00,18.5,15.4,30.19,WNW,292,0.0,0.0,88,0.00,,,0.00,WUHU21636XXSP,2013-03-03 07:55:00,
2013-03-03 02:00:00,18.5,15.4,30.19,WNW,292,0.0,0.0,88,0.00,,,0.00,WUHU21636XXSP,2013-03-03 08:00:00,
2013-03-03 02:05:00,18.5,15.4,30.19,WNW,292,0.0,0.0,88,0.00,,,0.00,WUHU21636XXSP,2013-03-03 08:05:00,
2013-03-03 02:10:00,18.5,15.4,30.19,WNW,292,0.0,0.0,88,0.00,,,0.00,WUHU21636XXSP,2013-03-03 08:10:00,
2013-03-03 02:15:00,17.8,14.7,30.18,WNW,292,0.0,0.0,88,0.00,,,0.00,WUHU21636XXSP,2013-03-03 08:15:00,
2013-03-03 02:20:00,17.2,14.2,30.18,WNW,292,0.0,0.0,88,0.00,,,0.00,WUHU21636XXSP,2013-03-03 08:20:00,
2013-03-03 02:25:00,16.7,13.6,30.18,WNW,292,0.0,0.0,88,0.00,,,0.00,WUHU21636XXSP,2013-03-03 08:25:00,
2013-03-03 02:30:00,16.5,13.5,30.17,WNW,292,0.0,0.0,88,0.00,,,0.00,WUHU21636XXSP,2013-03-03 08:30:00,
2013-03-03 02:35:00,16.3,13.3,30.17,WNW,292,0.0,0.0,88,0.00,,,0.00,WUHU21636XXSP,2013-03-03 08:35:00,
2013-03-03 02:40:00,16.2,13.1,30.17,WNW,292,0.0,0.0,88,0.00,,,0.00,WUHU21636XXSP,2013-03-03 08:40:00,
2013-03-03 02:45:00,16.0,12.9,30.17,WNW,292,0.0,0.0,88,0.00,,,0.00,WUHU21636XXSP,2013-03-03 08:45:00,
2013-03-03 02:50:00,15.6,12.6,30.17,WNW,292,0.0,0.0,88,0.00,,,0.00,WUHU21636XXSP,2013-03-03 08:50:00,
2013-03-03 02:55:00,15.4,12.4,30.17,WNW,292,0.0,0.0,88,0.00,,,0.00,WUHU21636XXSP,2013-03-03 08:55:00,
2013-03-03 03:00:00,15.1,12.0,30.17,WNW,292,0.0,0.0,88,0.00,,,0.00,WUHU21636XXSP,2013-03-03 09:00:00,
2013-03-03 03:05:00,15.1,12.0,30.17,WNW,292,0.0,0.0,88,0.00,,,0.00,WUHU21636XXSP,2013-03-03 09:05:00,
2013-03-03 03:10:00,15.1,12.0,30.17,WNW,292,0.0,0.0,88,0.00,,,0.00,WUHU21636XXSP,2013-03-03 09:10:00,
2013-03-03 03:15:00,15.4,12.6,30.16,WNW,292,0.0,0.0,89,0.00,,,0.00,WUHU21636XXSP,2013-03-03 09:15:00,
2013-03-03 03:20:00,15.6,12.7,30.16,WNW,292,0.0,0.0,89,0.00,,,0.00,WUHU21636XXSP,2013-03-03 09:20:00,
2013-03-03 03:25:00,15.4,12.6,30.16,WNW,292,0.0,0.0,89,0.00,,,0.00,WUHU21636XXSP,2013-03-03 09:25:00,
2013-03-03 03:30:00,15.8,12.9,30.15,WNW,292,0.0,0.0,89,0.00,,,0.00,WUHU21636XXSP,2013-03-03 09:30:00,
2013-03-03 03:35:00,16.0,13.1,30.15,WNW,292,0.0,0.0,89,0.00,,,0.00,WUHU21636XXSP,2013-03-03 09:35:00,
2013-03-03 03:40:00,16.0,13.1,30.15,WNW,292,0.0,0.0,89,0.00,,,0.00,WUHU21636XXSP,2013-03-03 09:40:00,
2013-03-03 03:45:00,15.6,12.7,30.15,WNW,292,0.0,0.0,89,0.00,,,0.00,WUHU21636XXSP,2013-03-03 09:45:00,
2013-03-03 03:50:00,15.4,12.6,30.16,WNW,292,0.0,0.0,89,0.00,,,0.00,WUHU21636XXSP,2013-03-03 09:50:00,
2013-03-03 03:55:00,15.1,12.2,30.16,WNW,292,0.0,0.0,89,0.00,,,0.00,WUHU21636XXSP,2013-03-03 09:55:00,
2013-03-03 04:00:00,14.7,12.0,30.16,WNW,292,0.0,0.0,89,0.00,,,0.00,WUHU21636XXSP,2013-03-03 10:00:00,
2013-03-03 04:05:00,14.5,11.8,30.16,WNW,292,0.0,0.0,89,0.00,,,0.00,WUHU21636XXSP,2013-03-03 10:05:00,
2013-03-03 04:10:00,14.7,12.2,30.16,WNW,292,0.0,0.0,90,0.00,,,0.00,WUHU21636XXSP,2013-03-03 10:10:00,
2013-03-03 04:15:00,14.5,12.0,30.16,WNW,292,0.0,0.0,90,0.00,,,0.00,WUHU21636XXSP,2013-03-03 10:15:00,
2013-03-03 04:20:00,14.5,12.0,30.16,WNW,292,0.0,0.0,90,0.00,,,0.00,WUHU21636XXSP,2013-03-03 10:20:00,
2013-03-03 04:25:00,14.4,11.8,30.16,WNW,292,0.0,0.0,90,0.00,,,0.00,WUHU21636XXSP,2013-03-03 10:25:00,
2013-03-03 04:30:00,14.2,11.7,30.16,WNW,292,0.0,0.0,90,0.00,,,0.00,WUHU21636XXSP,2013-03-03 10:30:00,
2013-03-03 04:35:00,14.2,11.7,30.16,WNW,292,0.0,0.0,90,0.00,,,0.00,WUHU21636XXSP,2013-03-03 10:35:00,
2013-03-03 04:40:00,14.4,11.8,30.16,WNW,292,0.0,0.0,90,0.00,,,0.00,WUHU21636XXSP,2013-03-03 10:40:00,
2013-03-03 04:45:00,14.5,12.0,30.16,WNW,292,0.0,0.0,90,0.00,,,0.00,WUHU21636XXSP,2013-03-03 10:45:00,
2013-03-03 04:50:00,14.7,12.2,30.16,WNW,292,0.0,0.0,90,0.00,,,0.00,WUHU21636XXSP,2013-03-03 10:50:00,
2013-03-03 04:55:00,14.5,12.0,30.16,WNW,292,0.0,0.0,90,0.00,,,0.00,WUHU21636XXSP,2013-03-03 10:55:00,
2013-03-03 05:00:00,14.5,12.0,30.16,WNW,292,0.0,0.0,90,0.00,,,0.00,WUHU21636XXSP,2013-03-03 11:00:00,
2013-03-03 05:05:00,14.5,12.0,30.16,WNW,292,0.0,0.0,90,0.00,,,0.00,WUHU21636XXSP,2013-03-03 11:05:00,
2013-03-03 05:10:00,14.5,12.0,30.16,WNW,292,0.0,0.0,90,0.00,,,0.00,WUHU21636XXSP,2013-03-03 11:10:00,
2013-03-03 05:15:00,14.4,11.8,30.17,WNW,292,0.0,0.0,90,0.00,,,0.00,WUHU21636XXSP,2013-03-03 11:15:00,
2013-03-03 05:20:00,14.4,11.8,30.17,WNW,292,0.0,0.0,90,0.00,,,0.00,WUHU21636XXSP,2013-03-03 11:20:00,
2013-03-03 05:25:00,15.1,12.6,30.18,WNW,292,0.0,0.0,90,0.00,,,0.00,WUHU21636XXSP,2013-03-03 11:25:00,
2013-03-03 05:30:00,15.4,12.9,30.17,WNW,292,0.0,0.0,90,0.00,,,0.00,WUHU21636XXSP,2013-03-03 11:30:00,
2013-03-03 05:35:00,15.6,13.3,30.17,WNW,292,0.0,0.0,91,0.00,,,0.00,WUHU21636XXSP,2013-03-03 11:35:00,
2013-03-03 05:40:00,16.0,13.6,30.17,WNW,292,0.0,0.0,91,0.00,,,0.00,WUHU21636XXSP,2013-03-03 11:40:00,
2013-03-03 05:45:00,16.0,13.6,30.17,WNW,292,0.0,0.0,91,0.00,,,0.00,WUHU21636XXSP,2013-03-03 11:45:00,
2013-03-03 05:50:00,15.6,13.3,30.17,WNW,292,0.0,0.0,91,0.00,,,0.00,WUHU21636XXSP,2013-03-03 11:50:00,
2013-03-03 05:55:00,15.6,13.3,30.17,WNW,292,0.0,0.0,90,0.00,,,0.00,WUHU21636XXSP,2013-03-03 11:55:00,
2013-03-03 06:00:00,15.6,13.3,30.17,WNW,292,0.0,0.0,91,0.00,,,0.00,WUHU21636XXSP,2013-03-03 12:00:00,
2013-03-03 06:05:00,15.6,13.3,30.17,WNW,292,0.0,0.0,91,0.00,,,0.00,WUHU21636XXSP,2013-03-03 12:05:00,
2013-03-03 06:10:00,15.6,13.3,30.17,WNW,292,0.0,0.0,91,0.00,,,0.00,WUHU21636XXSP,2013-03-03 12:10:00,
2013-03-03 06:15:00,15.6,13.3,30.17,WNW,292,0.0,0.0,91,0.00,,,0.00,WUHU21636XXSP,2013-03-03 12:15:00,
2013-03-03 06:20:00,16.0,13.6,30.18,WNW,292,0.0,0.0,91,0.00,,,0.00,WUHU21636XXSP,2013-03-03 12:20:00,
2013-03-03 06:25:00,16.0,13.5,30.17,WNW,292,0.0,0.0,90,0.00,,,0.00,WUHU21636XXSP,2013-03-03 12:25:00,
2013-03-03 06:30:00,15.6,13.1,30.17,WNW,292,0.0,0.0,90,0.00,,,0.00,WUHU21636XXSP,2013-03-03 12:30:00,
2013-03-03 06:35:00,15.6,13.1,30.17,WNW,292,0.0,0.0,90,0.00,,,0.00,WUHU21636XXSP,2013-03-03 12:35:00,
2013-03-03 06:40:00,16.0,13.5,30.17,WNW,292,0.0,0.0,90,0.00,,,0.00,WUHU21636XXSP,2013-03-03 12:40:00,
2013-03-03 06:45:00,16.2,13.6,30.17,WNW,292,0.0,0.0,90,0.00,,,0.00,WUHU21636XXSP,2013-03-03 12:45:00,
2013-03-03 06:50:00,16.2,13.6,30.17,WNW,292,0.0,0.0,90,0.00,,,0.00,WUHU21636XXSP,2013-03-03 12:50:00,
2013-03-03 06:55:00,16.0,13.5,30.16,WNW,292,0.0,0.0,90,0.00,,,0.00,WUHU21636XXSP,2013-03-03 12:55:00,
2013-03-03 07:00:00,16.2,13.6,30.17,WNW,292,0.0,0.0,90,0.00,,,0.00,WUHU21636XXSP,2013-03-03 13:00:00,
2013-03-03 07:05:00,16.3,13.8,30.17,WNW,292,0.0,0.0,90,0.00,,,0.00,WUHU21636XXSP,2013-03-03 13:05:00,
2013-03-03 07:10:00,16.5,14.0,30.17,WNW,292,0.0,0.0,89,0.00,,,0.00,WUHU21636XXSP,2013-03-03 13:10:00,
2013-03-03 07:15:00,17.1,14.5,30.17,WNW,292,0.0,0.0,90,0.00,,,0.00,WUHU21636XXSP,2013-03-03 13:15:00,
2013-03-03 07:20:00,17.2,14.7,30.17,WNW,292,0.0,0.0,90,0.00,,,0.00,WUHU21636XXSP,2013-03-03 13:20:00,
2013-03-03 07:25:00,18.1,15.6,30.17,WNW,292,0.0,0.0,90,0.00,,,0.00,WUHU21636XXSP,2013-03-03 13:25:00,
2013-03-03 07:30:00,18.7,15.8,30.17,WNW,292,0.2,0.2,89,0.00,,,0.00,WUHU21636XXSP,2013-03-03 13:30:00,
2013-03-03 07:35:00,19.0,16.2,30.17,WNW,292,0.0,0.2,89,0.00,,,0.00,WUHU21636XXSP,2013-03-03 13:35:00,
2013-03-03 07:40:00,19.6,16.7,30.17,WNW,292,0.0,0.2,89,0.00,,,0.00,WUHU21636XXSP,2013-03-03 13:40:00,
2013-03-03 07:45:00,21.4,18.0,30.17,WNW,292,2.2,2.2,87,0.00,,,0.00,WUHU21636XXSP,2013-03-03 13:45:00,
2013-03-03 07:50:00,21.7,17.8,30.17,WNW,292,1.7,2.2,85,0.00,,,0.00,WUHU21636XXSP,2013-03-03 13:50:00,
2013-03-03 07:55:00,22.8,18.7,30.17,WNW,292,0.0,2.2,84,0.00,,,0.00,WUHU21636XXSP,2013-03-03 13:55:00,
2013-03-03 08:00:00,23.9,18.7,30.17,WNW,292,0.0,1.7,80,0.00,,,0.00,WUHU21636XXSP,2013-03-03 14:00:00,
2013-03-03 08:05:00,24.4,19.2,30.17,WNW,292,0.0,1.1,80,0.00,,,0.00,WUHU21636XXSP,2013-03-03 14:05:00,
2013-03-03 08:10:00,24.6,18.3,30.17,WNW,292,4.0,4.0,77,0.00,,,0.00,WUHU21636XXSP,2013-03-03 14:10:00,
2013-03-03 08:15:00,25.0,18.7,30.17,WNW,292,1.3,4.0,77,0.00,,,0.00,WUHU21636XXSP,2013-03-03 14:15:00,
2013-03-03 08:20:00,25.3,19.0,30.17,WNW,292,0.0,4.0,77,0.00,,,0.00,WUHU21636XXSP,2013-03-03 14:20:00,
2013-03-03 08:25:00,25.9,19.6,30.17,WNW,292,0.0,1.3,76,0.00,,,0.00,WUHU21636XXSP,2013-03-03 14:25:00,
2013-03-03 08:30:00,27.1,20.1,30.16,WNW,292,0.0,0.0,75,0.00,,,0.00,WUHU21636XXSP,2013-03-03 14:30:00,
2013-03-03 08:35:00,27.9,20.3,30.17,WNW,292,0.0,0.0,72,0.00,,,0.00,WUHU21636XXSP,2013-03-03 14:35:00,
2013-03-03 08:40:00,28.0,20.1,30.17,WNW,292,0.0,0.0,72,0.00,,,0.00,WUHU21636XXSP,2013-03-03 14:40:00,
2013-03-03 08:45:00,28.8,20.5,30.17,WNW,292,0.0,0.0,71,0.00,,,0.00,WUHU21636XXSP,2013-03-03 14:45:00,
2013-03-03 08:50:00,30.4,21.9,30.17,WNW,292,0.0,0.0,71,0.00,,,0.00,WUHU21636XXSP,2013-03-03 14:50:00,
2013-03-03 08:55:00,34.0,24.4,30.17,WNW,292,0.0,0.0,68,0.00,,,0.00,WUHU21636XXSP,2013-03-03 14:55:00,
2013-03-03 09:00:00,35.4,24.8,30.17,WNW,292,0.0,0.0,58,0.00,,,0.00,WUHU21636XXSP,2013-03-03 15:00:00,
2013-03-03 09:05:00,35.1,22.1,30.17,WNW,292,0.0,0.0,59,0.00,,,0.00,WUHU21636XXSP,2013-03-03 15:05:00,
2013-03-03 09:10:00,37.0,23.2,30.17,WNW,292,0.0,0.0,57,0.00,,,0.00,WUHU21636XXSP,2013-03-03 15:10:00,
2013-03-03 09:15:00,36.5,21.4,30.17,WNW,292,0.0,0.4,54,0.00,,,0.00,WUHU21636XXSP,2013-03-03 15:15:00,
2013-03-03 09:20:00,35.2,19.8,30.17,WNW,292,2.4,2.4,53,0.00,,,0.00,WUHU21636XXSP,2013-03-03 15:20:00,
2013-03-03 09:25:00,35.4,20.3,30.17,North,0,0.0,2.4,51,0.00,,,0.00,WUHU21636XXSP,2013-03-03 15:25:00,
2013-03-03 09:30:00,36.7,20.1,30.17,North,0,0.0,2.4,51,0.00,,,0.00,WUHU21636XXSP,2013-03-03 15:30:00,
2013-03-03 09:35:00,36.7,20.1,30.17,North,0,0.0,0.0,51,0.00,,,0.00,WUHU21636XXSP,2013-03-03 15:35:00,
2013-03-03 09:40:00,37.6,20.5,30.17,North,0,0.0,0.0,50,0.00,,,0.00,WUHU21636XXSP,2013-03-03 15:40:00,
2013-03-03 09:45:00,39.6,19.8,30.17,North,0,0.0,0.0,45,0.00,,,0.00,WUHU21636XXSP,2013-03-03 15:45:00,
2013-03-03 09:50:00,39.2,19.4,30.17,WSW,247,0.0,0.0,45,0.00,,,0.00,WUHU21636XXSP,2013-03-03 15:50:00,
2013-03-03 09:56:00,38.1,19.0,30.17,West,270,0.0,0.0,46,0.00,,,0.00,WUHU21636XXSP,2013-03-03 15:56:00,
2013-03-03 10:01:00,38.8,18.5,30.17,West,270,2.9,2.9,44,0.00,,,0.00,WUHU21636XXSP,2013-03-03 16:01:00,
2013-03-03 10:06:00,39.7,20.5,30.16,West,270,0.0,2.9,46,0.00,,,0.00,WUHU21636XXSP,2013-03-03 16:06:00,
2013-03-03 10:11:00,39.7,20.5,30.17,West,270,0.0,2.9,46,0.00,,,0.00,WUHU21636XXSP,2013-03-03 16:11:00,
2013-03-03 10:16:00,41.4,20.3,30.17,West,270,0.0,0.6,43,0.00,,,0.00,WUHU21636XXSP,2013-03-03 16:16:00,
2013-03-03 10:21:00,39.9,20.1,30.17,WNW,292,0.0,4.6,45,0.00,,,0.00,WUHU21636XXSP,2013-03-03 16:21:00,
2013-03-03 10:26:00,41.5,20.5,30.16,WSW,247,1.1,4.6,43,0.00,,,0.00,WUHU21636XXSP,2013-03-03 16:26:00,
2013-03-03 10:31:00,40.8,19.2,30.16,WNW,292,3.5,3.5,42,0.00,,,0.00,WUHU21636XXSP,2013-03-03 16:31:00,
2013-03-03 10:36:00,40.1,19.8,30.17,West,270,0.6,3.5,44,0.00,,,0.00,WUHU21636XXSP,2013-03-03 16:36:00,
2013-03-03 10:41:00,43.3,22.1,30.16,SSE,157,3.5,3.5,43,0.00,,,0.00,WUHU21636XXSP,2013-03-03 16:41:00,
2013-03-03 10:46:00,40.3,19.4,30.16,NW,315,1.7,6.9,43,0.00,,,0.00,WUHU21636XXSP,2013-03-03 16:46:00,
2013-03-03 10:51:00,38.8,18.5,30.15,NW,315,0.0,7.6,44,0.00,,,0.00,WUHU21636XXSP,2013-03-03 16:51:00,
2013-03-03 10:56:00,40.8,19.2,30.16,NW,315,2.6,7.6,42,0.00,,,0.00,WUHU21636XXSP,2013-03-03 16:56:00,
2013-03-03 11:01:00,38.1,19.0,30.15,West,270,4.4,8.7,46,0.00,,,0.00,WUHU21636XXSP,2013-03-03 17:01:00,
2013-03-03 11:06:00,37.0,18.5,30.15,NW,315,4.9,8.7,47,0.00,,,0.00,WUHU21636XXSP,2013-03-03 17:06:00,
2013-03-03 11:11:00,35.8,18.0,30.15,West,270,3.8,8.5,48,0.00,,,0.00,WUHU21636XXSP,2013-03-03 17:11:00,
2013-03-03 11:16:00,37.9,19.8,30.14,SSW,202,2.0,8.5,48,0.00,,,0.00,WUHU21636XXSP,2013-03-03 17:16:00,
2013-03-03 11:21:00,36.5,18.0,30.14,SSE,157,0.0,3.8,47,0.00,,,0.00,WUHU21636XXSP,2013-03-03 17:21:00,
2013-03-03 11:26:00,37.6,19.0,30.14,WSW,247,0.0,2.0,47,0.00,,,0.00,WUHU21636XXSP,2013-03-03 17:26:00,
2013-03-03 11:31:00,38.3,19.0,30.14,West,270,0.0,0.0,46,0.00,,,0.00,WUHU21636XXSP,2013-03-03 17:31:00,
2013-03-03 11:36:00,37.6,19.6,30.14,NNW,337,3.5,8.0,48,0.00,,,0.00,WUHU21636XXSP,2013-03-03 17:36:00,
2013-03-03 11:41:00,37.2,18.7,30.14,NW,315,3.1,8.0,50,0.00,,,0.00,WUHU21636XXSP,2013-03-03 17:41:00,
2013-03-03 11:46:00,37.0,20.5,30.14,WSW,247,0.0,8.2,51,0.00,,,0.00,WUHU21636XXSP,2013-03-03 17:46:00,
2013-03-03 11:51:00,37.2,20.3,30.14,WNW,292,9.1,11.1,50,0.00,,,0.00,WUHU21636XXSP,2013-03-03 17:51:00,
2013-03-03 11:56:00,37.2,20.7,30.14,West,270,1.1,11.1,51,0.00,,,0.00,WUHU21636XXSP,2013-03-03 17:56:00,
2013-03-03 12:01:00,38.8,20.7,30.14,North,0,3.8,9.1,48,0.00,,,0.00,WUHU21636XXSP,2013-03-03 18:01:00,
2013-03-03 12:06:00,39.7,21.4,30.13,NW,315,0.0,3.8,48,0.00,,,0.00,WUHU21636XXSP,2013-03-03 18:06:00,
2013-03-03 12:11:00,38.1,20.5,30.13,NW,315,4.0,6.9,49,0.00,,,0.00,WUHU21636XXSP,2013-03-03 18:11:00,
2013-03-03 12:16:00,38.8,23.0,30.13,West,270,2.0,7.1,53,0.00,,,0.00,WUHU21636XXSP,2013-03-03 18:16:00,
2013-03-03 12:21:00,40.6,21.2,30.13,NW,315,0.0,7.1,46,0.00,,,0.00,WUHU21636XXSP,2013-03-03 18:21:00,
2013-03-03 12:26:00,40.3,21.9,30.13,WNW,292,0.0,3.1,48,0.00,,,0.00,WUHU21636XXSP,2013-03-03 18:26:00,
2013-03-03 12:31:00,41.5,23.7,30.12,WSW,247,0.0,4.0,45,0.00,,,0.00,WUHU21636XXSP,2013-03-03 18:31:00,
2013-03-03 12:36:00,40.6,21.2,30.12,West,270,0.0,4.6,46,0.00,,,0.00,WUHU21636XXSP,2013-03-03 18:36:00,
2013-03-03 12:41:00,40.6,21.2,30.12,WNW,292,0.0,6.9,46,0.00,,,0.00,WUHU21636XXSP,2013-03-03 18:41:00,
2013-03-03 12:46:00,40.6,22.3,30.12,NW,315,3.5,8.7,48,0.00,,,0.00,WUHU21636XXSP,2013-03-03 18:46:00,
2013-03-03 12:51:00,40.8,21.9,30.12,NNW,337,4.6,8.7,47,0.00,,,0.00,WUHU21636XXSP,2013-03-03 18:51:00,
2013-03-03 12:56:00,40.3,22.5,30.12,NW,315,5.1,5.1,49,0.00,,,0.00,WUHU21636XXSP,2013-03-03 18:56:00,
2013-03-03 13:01:00,39.2,21.0,30.12,NW,315,0.0,7.6,48,0.00,,,0.00,WUHU21636XXSP,2013-03-03 19:01:00,
2013-03-03 13:06:00,40.6,21.7,30.11,NNW,337,3.1,7.6,47,0.00,,,0.00,WUHU21636XXSP,2013-03-03 19:06:00,
2013-03-03 13:11:00,41.9,23.5,30.11,WNW,292,2.2,3.1,48,0.00,,,0.00,WUHU21636XXSP,2013-03-03 19:11:00,
2013-03-03 13:16:00,41.5,22.1,30.11,NNE,22,0.0,3.1,46,0.00,,,0.00,WUHU21636XXSP,2013-03-03 19:16:00,
2013-03-03 13:21:00,41.5,22.1,30.10,NNE,22,0.0,3.1,47,0.00,,,0.00,WUHU21636XXSP,2013-03-03 19:21:00,
2013-03-03 13:26:00,41.5,22.1,30.11,West,270,0.6,0.6,47,0.00,,,0.00,WUHU21636XXSP,2013-03-03 19:26:00,
2013-03-03 13:31:00,38.8,21.2,30.10,NW,315,0.0,0.6,49,0.00,,,0.00,WUHU21636XXSP,2013-03-03 19:31:00,
2013-03-03 13:36:00,37.4,20.8,30.11,NW,315,3.3,8.0,51,0.00,,,0.00,WUHU21636XXSP,2013-03-03 19:36:00,
2013-03-03 13:41:00,37.6,21.4,30.10,NW,315,0.4,8.0,52,0.00,,,0.00,WUHU21636XXSP,2013-03-03 19:41:00,
2013-03-03 13:46:00,37.2,21.0,30.10,West,270,3.8,7.8,54,0.00,,,0.00,WUHU21636XXSP,2013-03-03 19:46:00,
2013-03-03 13:51:00,37.9,22.6,30.10,West,270,0.0,7.8,54,0.00,,,0.00,WUHU21636XXSP,2013-03-03 19:51:00,
2013-03-03 13:56:00,38.1,22.3,30.10,NW,315,3.8,6.4,52,0.00,,,0.00,WUHU21636XXSP,2013-03-03 19:56:00,
2013-03-03 14:01:00,37.9,22.1,30.10,WNW,292,3.8,4.2,53,0.00,,,0.00,WUHU21636XXSP,2013-03-03 20:01:00,
2013-03-03 14:06:00,37.2,20.7,30.10,WNW,292,3.3,8.5,51,0.00,,,0.00,WUHU21636XXSP,2013-03-03 20:06:00,
2013-03-03 14:11:00,36.5,19.9,30.10,West,270,2.0,8.5,52,0.00,,,0.00,WUHU21636XXSP,2013-03-03 20:11:00,
2013-03-03 14:16:00,37.2,21.6,30.10,WSW,247,0.0,3.3,53,0.00,,,0.00,WUHU21636XXSP,2013-03-03 20:16:00,
2013-03-03 14:21:00,37.6,21.9,30.10,West,270,1.3,2.4,53,0.00,,,0.00,WUHU21636XXSP,2013-03-03 20:21:00,
2013-03-03 14:26:00,37.0,20.5,30.09,NW,315,4.0,4.0,51,0.00,,,0.00,WUHU21636XXSP,2013-03-03 20:26:00,
2013-03-03 14:31:00,36.3,21.2,30.09,WNW,292,3.3,7.3,54,0.00,,,0.00,WUHU21636XXSP,2013-03-03 20:31:00,
2013-03-03 14:36:00,37.2,21.9,30.09,WSW,247,0.0,7.3,54,0.00,,,0.00,WUHU21636XXSP,2013-03-03 20:36:00,
2013-03-03 14:41:00,37.6,21.4,30.09,West,270,2.4,2.4,53,0.00,,,0.00,WUHU21636XXSP,2013-03-03 20:41:00,
2013-03-03 14:46:00,37.2,20.7,30.09,NW,315,4.0,4.0,51,0.00,,,0.00,WUHU21636XXSP,2013-03-03 20:46:00,
2013-03-03 14:51:00,37.2,21.9,30.09,WSW,247,0.0,4.0,54,0.00,,,0.00,WUHU21636XXSP,2013-03-03 20:51:00,
2013-03-03 14:56:00,37.6,21.9,30.09,WSW,247,0.0,4.0,52,0.00,,,0.00,WUHU21636XXSP,2013-03-03 20:56:00,
2013-03-03 15:01:00,37.9,22.6,30.09,West,270,0.0,0.0,54,0.00,,,0.00,WUHU21636XXSP,2013-03-03 21:01:00,
2013-03-03 15:06:00,38.1,21.9,30.09,WSW,247,0.0,4.2,52,0.00,,,0.00,WUHU21636XXSP,2013-03-03 21:06:00,
2013-03-03 15:11:00,37.6,21.9,30.09,West,270,0.0,4.2,54,0.00,,,0.00,WUHU21636XXSP,2013-03-03 21:11:00,
2013-03-03 15:16:00,37.8,21.6,30.08,West,270,0.0,0.0,52,0.00,,,0.00,WUHU21636XXSP,2013-03-03 21:16:00,
2013-03-03 15:21:00,37.9,21.4,30.08,West,270,0.0,0.0,51,0.00,,,0.00,WUHU21636XXSP,2013-03-03 21:21:00,
2013-03-03 15:26:00,37.6,21.0,30.08,West,270,0.0,0.0,51,0.00,,,0.00,WUHU21636XXSP,2013-03-03 21:26:00,
2013-03-03 15:31:00,37.2,20.7,30.08,West,270,0.0,0.0,52,0.00,,,0.00,WUHU21636XXSP,2013-03-03 21:31:00,
2013-03-03 15:36:00,37.8,21.6,30.08,West,270,0.0,0.0,52,0.00,,,0.00,WUHU21636XXSP,2013-03-03 21:36:00,
2013-03-03 15:41:00,37.8,21.6,30.08,West,270,0.0,0.0,51,0.00,,,0.00,WUHU21636XXSP,2013-03-03 21:41:00,
2013-03-03 15:46:00,37.9,21.7,30.08,West,270,0.0,0.0,52,0.00,,,0.00,WUHU21636XXSP,2013-03-03 21:46:00,
2013-03-03 15:51:00,38.1,22.3,30.08,West,270,0.0,0.0,53,0.00,,,0.00,WUHU21636XXSP,2013-03-03 21:51:00,
2013-03-03 15:56:00,37.9,21.7,30.08,West,270,0.0,0.0,52,0.00,,,0.00,WUHU21636XXSP,2013-03-03 21:56:00,
2013-03-03 16:01:00,37.8,21.6,30.07,West,270,0.0,0.0,52,0.00,,,0.00,WUHU21636XXSP,2013-03-03 22:01:00,
2013-03-03 16:06:00,37.8,21.6,30.08,West,270,0.0,0.0,53,0.00,,,0.00,WUHU21636XXSP,2013-03-03 22:06:00,
2013-03-03 16:11:00,37.2,21.0,30.07,WSW,247,0.0,0.0,52,0.00,,,0.00,WUHU21636XXSP,2013-03-03 22:11:00,
2013-03-03 16:16:00,37.2,21.0,30.07,SSE,157,2.2,2.2,52,0.00,,,0.00,WUHU21636XXSP,2013-03-03 22:16:00,
2013-03-03 16:21:00,37.0,21.4,30.07,SSW,202,3.5,3.5,52,0.00,,,0.00,WUHU21636XXSP,2013-03-03 22:21:00,
2013-03-03 16:26:00,37.0,21.4,30.07,SSW,202,0.0,3.5,53,0.00,,,0.00,WUHU21636XXSP,2013-03-03 22:26:00,
2013-03-03 16:31:00,36.7,20.7,30.07,SE,135,0.0,3.5,52,0.00,,,0.00,WUHU21636XXSP,2013-03-03 22:31:00,
2013-03-03 16:36:00,36.5,20.8,30.07,ESE,112,0.0,0.0,53,0.00,,,0.00,WUHU21636XXSP,2013-03-03 22:36:00,
2013-03-03 16:41:00,36.3,20.7,30.07,SE,135,3.1,3.1,53,0.00,,,0.00,WUHU21636XXSP,2013-03-03 22:41:00,
2013-03-03 16:46:00,36.1,20.5,30.07,SE,135,0.0,4.0,53,0.00,,,0.00,WUHU21636XXSP,2013-03-03 22:46:00,
2013-03-03 16:51:00,36.0,20.8,30.07,SE,135,0.0,4.0,54,0.00,,,0.00,WUHU21636XXSP,2013-03-03 22:51:00,
2013-03-03 16:56:00,35.8,21.0,30.06,ESE,112,0.0,0.0,55,0.00,,,0.00,WUHU21636XXSP,2013-03-03 22:56:00,
2013-03-03 17:01:00,35.8,21.0,30.06,ESE,112,0.0,0.0,55,0.00,,,0.00,WUHU21636XXSP,2013-03-03 23:01:00,
2013-03-03 17:06:00,35.4,21.2,30.06,SE,135,0.0,0.0,56,0.00,,,0.00,WUHU21636XXSP,2013-03-03 23:06:00,
2013-03-03 17:11:00,35.2,21.0,30.06,SE,135,0.0,1.1,56,0.00,,,0.00,WUHU21636XXSP,2013-03-03 23:11:00,
2013-03-03 17:16:00,35.1,20.8,30.06,SE,135,0.0,1.1,56,0.00,,,0.00,WUHU21636XXSP,2013-03-03 23:16:00,
2013-03-03 17:21:00,34.7,20.5,30.07,SE,135,3.5,3.5,56,0.00,,,0.00,WUHU21636XXSP,2013-03-03 23:21:00,
2013-03-03 17:26:00,34.5,20.7,30.07,SE,135,0.0,3.5,57,0.00,,,0.00,WUHU21636XXSP,2013-03-03 23:26:00,
2013-03-03 17:31:00,34.5,20.7,30.07,SE,135,0.0,3.5,57,0.00,,,0.00,WUHU21636XXSP,2013-03-03 23:31:00,
2013-03-03 17:36:00,34.3,20.5,30.07,SE,135,2.6,2.6,58,0.00,,,0.00,WUHU21636XXSP,2013-03-03 23:36:00,
2013-03-03 17:41:00,34.2,21.2,30.07,SE,135,0.0,2.6,59,0.00,,,0.00,WUHU21636XXSP,2013-03-03 23:41:00,
2013-03-03 17:46:00,33.8,21.7,30.08,NE,45,1.3,2.6,61,0.00,,,0.00,WUHU21636XXSP,2013-03-03 23:46:00,
2013-03-03 17:51:00,33.6,21.9,30.08,NE,45,0.0,1.3,61,0.00,,,0.00,WUHU21636XXSP,2013-03-03 23:51:00,
2013-03-03 17:56:00,33.4,21.4,30.07,ENE,67,0.0,1.3,63,0.00,,,0.00,WUHU21636XXSP,2013-03-03 23:56:00,
2013-03-03 18:01:00,33.1,21.7,30.07,ENE,67,0.0,0.0,63,0.00,,,0.00,WUHU21636XXSP,2013-03-04 00:01:00,
2013-03-03 18:06:00,32.7,21.7,30.07,ENE,67,0.0,0.0,64,0.00,,,0.00,WUHU21636XXSP,2013-03-04 00:06:00,
2013-03-03 18:11:00,32.5,21.9,30.07,ENE,67,0.0,0.0,65,0.00,,,0.00,WUHU21636XXSP,2013-03-04 00:11:00,
2013-03-03 18:16:00,32.5,21.9,30.07,ENE,67,0.0,0.0,66,0.00,,,0.00,WUHU21636XXSP,2013-03-04 00:16:00,
2013-03-03 18:21:00,32.2,21.9,30.07,ENE,67,0.0,0.0,66,0.00,,,0.00,WUHU21636XXSP,2013-03-04 00:21:00,
2013-03-03 18:26:00,31.8,21.7,30.07,ENE,67,0.0,0.0,66,0.00,,,0.00,WUHU21636XXSP,2013-03-04 00:26:00,
2013-03-03 18:31:00,31.8,21.7,30.07,ENE,67,0.0,0.0,67,0.00,,,0.00,WUHU21636XXSP,2013-03-04 00:31:00,
2013-03-03 18:36:00,31.6,21.9,30.07,ENE,67,0.0,0.0,67,0.00,,,0.00,WUHU21636XXSP,2013-03-04 00:36:00,
2013-03-03 18:41:00,31.1,21.4,30.07,ENE,67,0.0,0.0,67,0.00,,,0.00,WUHU21636XXSP,2013-03-04 00:41:00,
2013-03-03 18:46:00,30.7,21.0,30.07,ENE,67,0.0,0.0,67,0.00,,,0.00,WUHU21636XXSP,2013-03-04 00:46:00,
2013-03-03 18:51:00,30.6,21.2,30.07,ENE,67,0.0,0.0,69,0.00,,,0.00,WUHU21636XXSP,2013-03-04 00:51:00,
2013-03-03 18:56:00,30.0,21.0,30.07,ENE,67,0.0,0.0,69,0.00,,,0.00,WUHU21636XXSP,2013-03-04 00:56:00,
2013-03-03 19:01:00,29.8,21.2,30.08,ENE,67,0.0,0.0,70,0.00,,,0.00,WUHU21636XXSP,2013-03-04 01:01:00,
2013-03-03 19:06:00,29.8,21.2,30.07,ENE,67,0.0,0.0,70,0.00,,,0.00,WUHU21636XXSP,2013-03-04 01:06:00,
2013-03-03 19:11:00,29.1,20.8,30.07,ENE,67,0.0,0.0,71,0.00,,,0.00,WUHU21636XXSP,2013-03-04 01:11:00,
2013-03-03 19:16:00,28.9,20.7,30.08,ENE,67,0.0,0.0,72,0.00,,,0.00,WUHU21636XXSP,2013-03-04 01:16:00,
2013-03-03 19:21:00,28.8,21.0,30.08,ENE,67,0.0,0.0,73,0.00,,,0.00,WUHU21636XXSP,2013-03-04 01:21:00,
2013-03-03 19:26:00,28.9,21.2,30.08,ENE,67,0.0,0.0,73,0.00,,,0.00,WUHU21636XXSP,2013-03-04 01:26:00,
2013-03-03 19:31:00,28.9,21.2,30.08,ENE,67,0.0,0.0,74,0.00,,,0.00,WUHU21636XXSP,2013-03-04 01:31:00,
2013-03-03 19:36:00,28.9,21.2,30.08,ENE,67,0.0,0.0,74,0.00,,,0.00,WUHU21636XXSP,2013-03-04 01:36:00,
2013-03-03 19:41:00,29.1,22.1,30.08,ENE,67,0.0,0.0,75,0.00,,,0.00,WUHU21636XXSP,2013-03-04 01:41:00,
2013-03-03 19:46:00,29.1,22.1,30.07,ENE,67,0.0,0.0,74,0.00,,,0.00,WUHU21636XXSP,2013-03-04 01:46:00,
2013-03-03 19:51:00,29.3,22.3,30.08,ENE,67,0.0,0.0,75,0.00,,,0.00,WUHU21636XXSP,2013-03-04 01:51:00,
2013-03-03 19:56:00,29.3,22.3,30.07,ENE,67,0.0,0.0,75,0.00,,,0.00,WUHU21636XXSP,2013-03-04 01:56:00,
2013-03-03 20:01:00,29.3,22.3,30.08,ENE,67,0.0,0.0,76,0.00,,,0.00,WUHU21636XXSP,2013-03-04 02:01:00,
2013-03-03 20:06:00,29.5,22.6,30.07,ENE,67,0.0,0.0,76,0.00,,,0.00,WUHU21636XXSP,2013-03-04 02:06:00,
2013-03-03 20:11:00,29.5,22.6,30.07,ENE,67,0.0,0.0,76,0.00,,,0.00,WUHU21636XXSP,2013-03-04 02:11:00,
2013-03-03 20:16:00,29.5,22.6,30.08,ENE,67,0.0,0.0,75,0.00,,,0.00,WUHU21636XXSP,2013-03-04 02:16:00,
2013-03-03 20:21:00,29.8,22.8,30.07,ENE,67,0.0,0.0,75,0.00,,,0.00,WUHU21636XXSP,2013-03-04 02:21:00,
2013-03-03 20:25:00,30.0,22.6,30.07,ESE,112,0.0,0.0,74,0.00,,,0.00,WUHU21636XXSP,2013-03-04 02:25:00,
2013-03-03 20:30:00,30.2,22.8,30.07,ESE,112,0.0,0.0,74,0.00,,,0.00,WUHU21636XXSP,2013-03-04 02:30:00,
2013-03-03 20:35:00,30.2,22.5,30.07,ESE,112,0.0,0.0,73,0.00,,,0.00,WUHU21636XXSP,2013-03-04 02:35:00,
2013-03-03 20:40:00,30.4,23.0,30.07,ESE,112,0.0,0.0,74,0.00,,,0.00,WUHU21636XXSP,2013-03-04 02:40:00,
2013-03-03 20:46:00,30.4,23.0,30.07,SE,135,0.8,0.8,73,0.00,,,0.00,WUHU21636XXSP,2013-03-04 02:46:00,
2013-03-03 20:50:00,30.4,23.0,30.07,SE,135,0.0,0.8,74,0.00,,,0.00,WUHU21636XXSP,2013-03-04 02:50:00,
2013-03-03 20:56:00,30.0,22.6,30.07,SE,135,0.0,0.8,74,0.00,,,0.00,WUHU21636XXSP,2013-03-04 02:56:00,
2013-03-03 21:00:00,30.0,22.6,30.07,SE,135,0.0,0.0,74,0.00,,,0.00,WUHU21636XXSP,2013-03-04 03:00:00,
2013-03-03 21:06:00,30.0,22.6,30.07,SE,135,0.0,0.0,74,0.00,,,0.00,WUHU21636XXSP,2013-03-04 03:06:00,
2013-03-03 21:11:00,30.0,22.6,30.07,SE,135,0.0,0.0,75,0.00,,,0.00,WUHU21636XXSP,2013-03-04 03:11:00,
2013-03-03 21:15:00,30.0,22.6,30.07,SE,135,0.0,0.0,75,0.00,,,0.00,WUHU21636XXSP,2013-03-04 03:15:00,
2013-03-03 21:20:00,29.8,22.8,30.07,SE,135,0.0,0.0,76,0.00,,,0.00,WUHU21636XXSP,2013-03-04 03:20:00,
2013-03-03 21:25:00,30.0,23.2,30.07,SE,135,0.0,2.4,76,0.00,,,0.00,WUHU21636XXSP,2013-03-04 03:25:00,
2013-03-03 21:31:00,30.4,23.4,30.07,SE,135,0.0,2.4,75,0.00,,,0.00,WUHU21636XXSP,2013-03-04 03:31:00,
2013-03-03 21:35:00,30.4,23.4,30.08,SE,135,0.0,0.0,75,0.00,,,0.00,WUHU21636XXSP,2013-03-04 03:35:00,
2013-03-03 21:40:00,30.4,23.4,30.07,SE,135,0.0,0.0,75,0.00,,,0.00,WUHU21636XXSP,2013-03-04 03:40:00,
2013-03-03 21:45:00,30.4,23.4,30.07,SE,135,0.0,0.0,76,0.00,,,0.00,WUHU21636XXSP,2013-03-04 03:45:00,
2013-03-03 21:50:00,30.4,23.4,30.07,SE,135,0.0,0.0,76,0.00,,,0.00,WUHU21636XXSP,2013-03-04 03:50:00,
2013-03-03 21:55:00,30.6,23.7,30.07,SE,135,2.4,2.4,76,0.00,,,0.00,WUHU21636XXSP,2013-03-04 03:55:00,
2013-03-03 22:01:00,30.6,23.7,30.07,SE,135,0.0,2.4,76,0.00,,,0.00,WUHU21636XXSP,2013-03-04 04:01:00,
2013-03-03 22:05:00,30.6,23.7,30.07,SE,135,0.0,2.4,76,0.00,,,0.00,WUHU21636XXSP,2013-03-04 04:05:00,
2013-03-03 22:11:00,30.6,23.7,30.07,SE,135,0.0,0.0,76,0.00,,,0.00,WUHU21636XXSP,2013-03-04 04:11:00,
2013-03-03 22:15:00,30.7,23.9,30.07,SE,135,0.0,0.0,77,0.00,,,0.00,WUHU21636XXSP,2013-03-04 04:15:00,
2013-03-03 22:21:00,30.7,23.9,30.07,SE,135,0.0,0.0,77,0.00,,,0.00,WUHU21636XXSP,2013-03-04 04:21:00,
2013-03-03 22:25:00,30.7,23.9,30.07,SE,135,1.3,1.3,77,0.00,,,0.00,WUHU21636XXSP,2013-03-04 04:25:00,
2013-03-03 22:30:00,30.7,23.9,30.07,SE,135,0.6,3.5,77,0.00,,,0.00,WUHU21636XXSP,2013-03-04 04:30:00,
2013-03-03 22:35:00,30.9,24.4,30.07,SE,135,2.0,4.4,77,0.00,,,0.00,WUHU21636XXSP,2013-03-04 04:35:00,
2013-03-03 22:41:00,30.9,24.4,30.07,SE,135,0.0,4.4,76,0.00,,,0.00,WUHU21636XXSP,2013-03-04 04:41:00,
2013-03-03 22:45:00,30.9,24.4,30.06,SE,135,0.0,3.3,76,0.00,,,0.00,WUHU21636XXSP,2013-03-04 04:45:00,
2013-03-03 22:51:00,30.9,24.1,30.06,SE,135,3.1,7.6,76,0.00,,,0.00,WUHU21636XXSP,2013-03-04 04:51:00,
2013-03-03 22:56:00,30.9,24.1,30.07,SE,135,0.0,7.6,75,0.00,,,0.00,WUHU21636XXSP,2013-03-04 04:56:00,
2013-03-03 23:00:00,30.9,24.1,30.07,SE,135,0.0,3.1,75,0.00,,,0.00,WUHU21636XXSP,2013-03-04 05:00:00,
2013-03-03 23:05:00,30.9,24.1,30.07,SE,135,0.0,0.0,76,0.00,,,0.00,WUHU21636XXSP,2013-03-04 05:05:00,
2013-03-03 23:10:00,30.9,24.1,30.07,SE,135,0.0,0.0,76,0.00,,,0.00,WUHU21636XXSP,2013-03-04 05:10:00,
2013-03-03 23:15:00,30.9,24.1,30.07,SE,135,0.0,0.0,76,0.00,,,0.00,WUHU21636XXSP,2013-03-04 05:15:00,
2013-03-03 23:20:00,30.9,24.1,30.07,SE,135,0.0,0.4,77,0.00,,,0.00,WUHU21636XXSP,2013-03-04 05:20:00,
2013-03-03 23:25:00,31.1,24.6,30.07,SE,135,0.0,1.1,77,0.00,,,0.00,WUHU21636XXSP,2013-03-04 05:25:00,
2013-03-03 23:30:00,31.1,24.6,30.07,SE,135,0.0,1.1,76,0.00,,,0.00,WUHU21636XXSP,2013-03-04 05:30:00,
2013-03-03 23:35:00,31.3,24.8,30.07,SE,135,0.0,0.4,77,0.00,,,0.00,WUHU21636XXSP,2013-03-04 05:35:00,
2013-03-03 23:40:00,31.5,24.6,30.07,SE,135,1.7,1.7,76,0.00,,,0.00,WUHU21636XXSP,2013-03-04 05:40:00,
2013-03-03 23:45:00,31.6,24.8,30.07,SE,135,0.0,1.7,76,0.00,,,0.00,WUHU21636XXSP,2013-03-04 05:45:00,
2013-03-03 23:50:00,31.6,24.8,30.07,SE,135,2.6,2.9,75,0.00,,,0.00,WUHU21636XXSP,2013-03-04 05:50:00,
2013-03-03 23:55:00,31.6,24.6,30.07,SE,135,2.2,6.4,75,0.00,,,0.00,WUHU21636XXSP,2013-03-04 05:55:00,